Location: Newark
(44.1906°N, 75.9681°W)
Time: 22:02:51
(UTC+00:00)

N. Korean satellite - Visible Passes

Search period start: 26 January 2020 00:00
Search period end: 05 February 2020 00:00
Orbit: 454 x 507 km, 97.2° (Epoch: 26 January)

Date Brightness Start Highest point End Pass type
(mag) Time Alt. Az. Time Alt. Az. Time Alt. Az.
26 Jan 9.5 10:03:25 10° NE 10:05:58 18° E 10:08:32 10° SE visible
26 Jan 7.4 11:36:15 10° N 11:39:24 29° WNW 11:42:34 10° SW visible
27 Jan 6.5 11:10:27 10° N 11:13:59 61° WNW 11:17:35 10° SSW visible
28 Jan 7.1 10:44:56 10° NNE 10:48:31 61° E 10:52:07 10° S visible
28 Jan 9.7 22:56:09 10° SW 22:58:34 18° W 23:01:00 10° NW visible
29 Jan 8.7 10:19:44 10° NE 10:22:56 29° E 10:26:09 10° SSE visible
30 Jan 9.8 09:55:07 10° NE 09:57:16 15° E 09:59:25 10° SE visible
30 Jan 7.1 11:27:26 10° N 11:30:48 37° WNW 11:34:11 10° SW visible
31 Jan 6.5 11:01:44 10° N 11:05:22 80° WNW 11:09:01 10° SSW visible
31 Jan 10.2 23:14:26 10° WSW 23:15:33 11° W 23:16:41 10° WNW visible
01 Feb 7.7 10:36:19 10° NNE 10:39:50 47° E 10:43:24 10° S visible
01 Feb 9.4 22:47:04 10° SSW 22:49:50 23° W 22:52:38 10° NW visible
02 Feb 9.1 10:11:16 10° NE 10:14:15 23° E 10:17:15 10° SSE visible
02 Feb 7.7 11:44:34 10° NNW 11:47:33 24° WNW 11:50:34 10° SW visible
03 Feb 10.1 09:47:02 10° ENE 09:48:33 12° E 09:50:03 10° ESE visible
03 Feb 6.8 11:18:39 10° N 11:22:11 47° WNW 11:25:44 10° SSW visible
04 Feb 6.7 10:53:02 10° NNE 10:56:43 80° ESE 11:00:24 10° S visible
04 Feb 9.9 23:04:49 10° SW 23:06:47 14° W 23:08:46 10° WNW visible
